カタログに戻る

STARLINK-5902

運用中通信VLEO
NORAD 55998·PAYLOAD·🇺🇸 United States

打ち上げ Mar 24, 2023 から Cape Canaveral Space Force Station

Loading…

次のパス (今後24時間)

TLE

最新Source: CelesTrak SupGP

元期: Sep 15, 2026, 01:53 UTC

1 55998C 23042N   26258.07895833 -.00005976  00000+0 -21645-3 0  2580
2 55998  43.0030  69.8397 0001545 260.9975 196.7799 15.27582568    11

AllMySatでSTARLINK-5902をリアルタイム追跡

Download on the App Store